Volver al catálogo

NOAA 16 DEB

ActivoPO
NORAD 41158·DEBRIS·🇺🇸 United States

Lanzado Sep 21, 2000 desde Vandenberg Space Force Base

Loading…

Próximos Pases (próximas 24 horas)

TLE

ActualizadoSource: Space-Track

Época: Sep 14, 2026, 10:02 UTC

1 41158U 00055CR  26257.41805782  .00003547  00000-0  10765-2 0  9996
2 41158  98.9752  64.8361 0009599 281.7589  78.2522 14.42835877559847

Sigue NOAA 16 DEB en tiempo real con AllMySat

Download on the App Store